GLONASS-K 2

Last updated on Sat Apr 11 2026 00:02:38 GMT+0000 (Coordinated Universal Time)

1 40315U 14075A 26099.78884244 -.00000003 00000+0 00000+0 0 9993 2 40315 63.6148 192.7387 0021541 208.8373 151.0786 2.13101607 88391
UTC large
Height (km)
Speed (km/s)
/
Latitude / Longitude
Inclination (degrees)
Orbital Period (minutes)
Azimuth
Elevation
Range (km)
Doppler Factor

Next 0 passes for location: London (51.5072 / 0.1276)

Sorry there are no passes over London.